STARLINK-33962, 63950

Orbit data source: Space-Track

STARLINK-33962, 63950 is a payload satellite owned by SpaceX/Seattle (US) in LEO that was launched on Tue, 13 May 2025 UTC via an FALCON 9 launch vehicle from the Air Force Western Test Range (AFWTR). Payload-class satellites include a variety of spacecraft equipped with specific instruments for various scientific and technological missions. These include communications satellites like Starlink; space stations such as the ISS; scientific satellites like the Hubble; Earth observation satellites from companies like Planet Labs, Umbra, and HawkEye 360; GPS; miniature CubeSats for education and research; and military/defense satellites.

Loading next visibility...
Identifier
63950, 2025-098AA
Orbit
LEO
Country
Flag of USUS
Related business
Manufacturer
SpaceX/Seattle
Mission
Operational Commercial Communications
Bus & Motor
STARLINK V2MO, Unknown motor
Mass
575 kg wet, ~530 kg dry
Launch date (UTC)
2025-05-13 (1 year ago)
Launch vehicle
FALCON 9
Launch site
Air Force Western Test Range (AFWTR)
Object type
Payload
Rocket body
Debris
Shape & HBR
Box + 2 Pan, 17.7 m
Radar Cross Section
36.964 m², Large (>1 m²)

Expand to show TLE details & history
Last TLE update: 23 hours ago

TLE from 23 hours ago
0 STARLINK-33962
1 63950U 25098AA  26171.02365473 -.00238345  00000-0 -21041-1 0  9990
2 63950  70.0018  16.3291 0002205 258.1161 101.9751 14.97617204 61873
Epoch: 2026-06-20T00:34Z
TLE epoch observation values (Epoch: 2026-06-20T00:34:03.768Z)
Latitude
0.00001°
Longitude
99.56918°
Altitude
577.003 km
Speed
7.572 km/s
True Right ascension
01h 05m 18s
True Declination
0° 00' 00"
Sunlit
Object was in daylight at epoch
Visualization orbit readout
Latitude
Unknown
Longitude
Unknown
Altitude
Unknown
Speed
Unknown
Apparent Right ascension
Unknown
Apparent Declination
Unknown
Sunlit
N/A
Visualization observer readout
Local Sidereal Time
10:20:21
Azimuth
Unknown
Elevation
Unknown
Doppler factor
Unknown
Orbital elements
Apogee altitude
573.742 km
Perigee altitude
570.677 km
Semi-major axis
6,950.347 km
Eccentricity
0.00022
Inclination
70.0018°
RAAN
16.3291°
Arg. of periapsis
258.1161°
True anomaly
101.99982°
Mean anomaly
101.9751°
Eccentric anomaly
101.98746°
Mean motion
3.7457 °/min
Orbital period
96.11 mins
BSTAR
-0.021041
Loading maneuver chart data...
Computing Atmospheric mass density...
Loading historical data...
Loading historical data...
Loading historical data...
Loading historical data...
Loading historical data...
Loading historical data...
Loading historical data...

Documentation

Showing up to 5 results
|